| time (UTC) | temp F | wind direction | speed knots | gust knots | rain 1hr in | rain 24hr in | rain mn in | humidity % | barometer mb |
| 20260504081535 | 61 | 105 | 0.9 | 3.5 | 0.00 | 0.00 | 0.00 | 67 | 1008.4 |
| 20260504050012 | 64 | 272 | 3.5 | 9.6 | 0.00 | 0.00 | 0.00 | 58 | 1008.5 |
| 20260504044514 | 64 | 207 | 2.6 | 9.6 | 0.00 | 0.00 | 0.00 | 57 | 1009.0 |
| 20260504043013 | 65 | 217 | 3.5 | 8.7 | 0.00 | 0.00 | 0.00 | 56 | 1009.4 |
| 20260504041527 | 65 | 207 | 3.5 | 9.6 | 0.00 | 0.00 | 0.00 | 55 | 1009.6 |
| 20260504040010 | 65 | 237 | 3.5 | 9.6 | 0.00 | 0.00 | 0.00 | 54 | 1009.6 |
| 20260504034509 | 66 | 237 | 3.5 | 8.7 | 0.00 | 0.00 | 0.00 | 53 | 1010.0 |
| 20260504033006 | 65 | 229 | 2.6 | 7.8 | 0.00 | 0.00 | 0.00 | 53 | 1010.0 |
| 20260504031506 | 66 | 218 | 2.6 | 8.7 | 0.00 | 0.00 | 0.00 | 51 | 1010.1 |
| 20260504030005 | 66 | 264 | 2.6 | 7.8 | 0.00 | 0.00 | 0.00 | 50 | 1010.0 |
| 20260504024505 | 66 | 277 | 1.7 | 7.0 | 0.00 | 0.00 | 0.00 | 49 | 1010.0 |
| 20260504023004 | 67 | 191 | 1.7 | 8.7 | 0.00 | 0.00 | 0.00 | 49 | 1010.1 |
| 20260504021503 | 67 | 198 | 2.6 | 7.8 | 0.00 | 0.00 | 0.00 | 48 | 1010.0 |
| 20260504020008 | 67 | 222 | 2.6 | 8.7 | 0.00 | 0.00 | 0.00 | 48 | 1009.8 |
| 20260504014501 | 68 | 198 | 0.9 | 4.3 | 0.00 | 0.00 | 0.00 | 47 | 1009.8 |
| 20260504013001 | 68 | 299 | 0.9 | 5.2 | 0.00 | 0.00 | 0.00 | 45 | 1009.8 |
| 20260504011601 | 69 | 206 | 1.7 | 6.1 | 0.00 | 0.00 | 0.00 | 44 | 1009.8 |
| 20260504010101 | 70 | 187 | 1.7 | 6.1 | 0.00 | 0.00 | 0.00 | 43 | 1009.6 |
| 20260504004559 | 71 | 171 | 1.7 | 4.3 | 0.00 | 0.00 | 0.00 | 40 | 1009.4 |
| 20260504003058 | 72 | 198 | 2.6 | 7.0 | 0.00 | 0.00 | 0.00 | 39 | 1009.5 |
| 20260504001559 | 73 | 250 | 3.5 | 7.0 | 0.00 | 0.00 | 0.00 | 38 | 1009.6 |
| 20260504000106 | 74 | 256 | 2.6 | 7.8 | 0.00 | 0.00 | 0.00 | 37 | 1009.6 |
| 20260503234556 | 75 | 284 | 2.6 | 6.1 | 0.00 | 0.00 | 0.00 | 36 | 1009.8 |
| 20260503233054 | 75 | 243 | 3.5 | 10.4 | 0.00 | 0.00 | 0.00 | 36 | 1009.8 |
| 20260503231554 | 75 | 205 | 3.5 | 12.2 | 0.00 | 0.00 | 0.00 | 36 | 1009.9 |
| 20260503230053 | 75 | 209 | 4.3 | 10.4 | 0.00 | 0.00 | 0.00 | 35 | 1010.0 |
| 20260503224558 | 75 | 348 | 3.5 | 10.4 | 0.00 | 0.00 | 0.00 | 35 | 1010.2 |
| 20260503223046 | 75 | 188 | 3.5 | 13.9 | 0.00 | 0.00 | 0.00 | 34 | 1010.3 |
| 20260503221557 | 75 | 269 | 5.2 | 12.2 | 0.00 | 0.00 | 0.00 | 34 | 1010.3 |
| 20260503220044 | 75 | 289 | 6.1 | 16.5 | 0.00 | 0.00 | 0.00 | 34 | 1010.4 |
| 20260503214543 | 75 | 263 | 6.1 | 15.6 | 0.00 | 0.00 | 0.00 | 34 | 1010.5 |
| 20260503213044 | 75 | 211 | 5.2 | 10.4 | 0.00 | 0.00 | 0.00 | 34 | 1010.7 |
| 20260503211538 | 75 | 253 | 5.2 | 13.0 | 0.00 | 0.00 | 0.00 | 33 | 1011.0 |
| 20260503210037 | 74 | 198 | 5.2 | 16.5 | 0.00 | 0.00 | 0.00 | 34 | 1011.0 |
| 20260503204534 | 74 | 198 | 6.1 | 15.6 | 0.00 | 0.00 | 0.00 | 34 | 1011.4 |
| 20260503203036 | 73 | 181 | 4.3 | 12.2 | 0.00 | 0.00 | 0.00 | 35 | 1011.8 |
| 20260503201530 | 73 | 204 | 6.1 | 15.6 | 0.00 | 0.00 | 0.00 | 36 | 1011.9 |
| 20260503200028 | 73 | 229 | 5.2 | 14.8 | 0.00 | 0.00 | 0.00 | 36 | 1012.6 |
| 20260503194523 | 72 | 214 | 4.3 | 13.0 | 0.00 | 0.00 | 0.00 | 36 | 1013.1 |
| 20260503193034 | 71 | 327 | 3.5 | 12.2 | 0.00 | 0.00 | 0.00 | 37 | 1013.4 |
| 20260503191533 | 71 | 251 | 4.3 | 13.9 | 0.00 | 0.00 | 0.00 | 38 | 1014.0 |
| 20260503190025 | 70 | 194 | 3.5 | 8.7 | 0.00 | 0.00 | 0.00 | 38 | 1014.1 |
| 20260503184515 | 69 | 175 | 5.2 | 16.5 | 0.00 | 0.00 | 0.00 | 38 | 1014.8 |
| 20260503183009 | 68 | 242 | 4.3 | 13.9 | 0.00 | 0.00 | 0.00 | 36 | 1015.4 |
| 20260503181506 | 68 | 288 | 2.6 | 10.4 | 0.00 | 0.00 | 0.00 | 40 | 1015.7 |
| 20260503180005 | 67 | 228 | 4.3 | 13.0 | 0.00 | 0.00 | 0.00 | 39 | 1016.3 |
| 20260503174604 | 67 | 202 | 2.6 | 10.4 | 0.00 | 0.00 | 0.00 | 41 | 1016.5 |
| 20260503173103 | 66 | 227 | 3.5 | 14.8 | 0.00 | 0.00 | 0.00 | 40 | 1016.9 |
| 20260503171554 | 66 | 251 | 3.5 | 10.4 | 0.00 | 0.00 | 0.00 | 42 | 1017.0 |
| 20260503170104 | 65 | 227 | 5.2 | 13.9 | 0.00 | 0.00 | 0.00 | 41 | 1017.3 |